Temp
75 78 79 77 65 61 57 66 78 78 79 87 88 81 79 85 80 66 82 85 81 77 78 80 80 80 80 80 80 79 79 79 79 79 79 79 79 79 79 79 80 81 81 81 81 81 81 81 81
79 86 80 73 61 53 57 69 75 81 88 87 85 87 81 77 84 86 82 85 82 78 77 78 80 80 80 80 79 79 79 79 79 79 79 79 79 79 79 79 80 81 81 81 81 81 81 81 80
80 86 71 66 62 59 64 78 79 85 89 88 81 82 77 73 83 80 86 84 81 78 76 78 80 80 80 80 79 79 79 79 79 79 79 79 79 79 79 79 80 81 81 82 81 81 80 80 80
82 78 74 63 61 72 76 81 85 87 85 86 80 72 78 84 80 88 89 86 82 79 76 78 79 80 80 80 79 79 79 79 79 79 79 79 79 79 78 79 79 80 81 81 81 80 80 80 80
80 73 61 60 67 78 80 87 86 83 83 77 80 71 74 80 88 92 89 88 84 77 76 77 79 79 79 80 79 79 79 79 79 79 79 79 79 78 78 79 79 80 80 81 80 80 79 79 79
71 72 59 56 69 81 84 87 84 83 81 79 76 72 69 80 86 91 92 88 87 78 76 77 79 79 79 79 79 79 78 78 79 79 79 79 78 78 78 79 79 79 80 80 80 79 79 78 78
69 63 60 65 71 79 85 84 82 84 84 80 82 72 74 81 88 90 91 90 83 81 77 76 76 78 79 78 78 78 78 78 78 78 78 78 78 78 78 78 79 79 79 79 79 79 78 78 78
75 68 64 67 69 74 86 86 86 89 86 92 91 76 72 83 89 91 92 86 83 82 78 74 74 76 75 76 78 78 78 78 78 78 78 78 78 78 78 78 78 78 78 79 79 78 78 78 77
76 62 59 66 72 78 85 80 88 94 89 91 92 87 90 90 94 88 86 84 84 82 79 77 75 74 74 74 77 78 79 78 78 78 78 76 73 74 76 77 78 78 78 78 78 78 78 77 77
71 59 65 75 76 74 82 81 85 87 87 87 89 92 93 94 90 81 76 77 81 80 80 80 78 77 77 83 77 73 76 74 73 73 73 72 72 72 78 78 78 79 78 78 78 78 77 78 72
73 66 75 79 80 81 81 82 86 83 80 84 82 88 92 91 77 77 79 78 80 84 84 83 82 81 81 84 77 75 75 74 73 73 72 71 75 74 76 77 78 76 78 76 77 76 75 73 72
66 80 79 79 83 80 79 83 83 82 85 92 93 91 91 89 82 78 72 74 79 83 86 85 85 83 84 85 78 77 77 76 74 75 75 74 74 74 77 77 79 77 77 74 75 74 74 73 71
71 79 81 83 82 78 82 82 80 82 90 93 94 94 88 87 86 75 78 81 84 87 88 87 87 85 86 81 81 79 79 78 78 77 77 78 76 76 78 78 78 76 77 76 75 75 74 73 72
78 78 80 82 80 79 77 80 79 86 91 92 91 89 87 90 88 80 77 80 80 89 88 88 87 87 84 80 82 82 83 81 80 80 79 79 80 79 76 75 75 74 76 79 76 73 70 70 70
80 72 77 79 81 77 79 78 79 86 87 87 90 91 89 91 90 88 87 87 87 89 88 84 86 85 82 81 81 80 79 83 83 82 82 81 81 79 79 75 75 75 74 72 69 69 68 67 67
73 67 60 76 82 82 78 67 81 86 85 85 90 89 86 82 82 84 87 85 82 85 84 83 91 84 80 80 78 78 79 78 77 78 77 82 82 81 75 75 75 73 73 69 69 66 65 65 65
65 62 66 72 80 79 76 69 80 84 85 83 78 71 76 75 84 85 84 86 87 84 84 83 83 85 80 79 78 78 78 77 78 78 76 78 82 81 75 73 73 72 70 67 67 65 65 63 63
63 64 67 70 72 77 68 64 72 82 81 79 73 69 70 69 72 82 83 83 83 83 83 83 82 83 80 77 77 76 76 76 78 76 73 70 68 69 69 70 70 71 69 67 66 65 64 63 62
73 70 68 75 77 73 64 66 71 69 71 67 74 66 68 70 78 80 84 81 82 80 82 77 80 77 81 75 74 73 74 76 75 71 70 68 70 72 69 65 69 71 68 67 66 63 62 62 61
74 69 67 73 80 69 65 63 69 63 61 65 71 70 69 68 75 78 76 79 78 78 78 78 79 80 79 77 76 76 76 73 68 67 69 70 71 72 71 65 66 70 69 67 65 63 61 61 61
72 68 68 68 75 69 66 59 62 67 67 69 78 82 80 78 77 79 76 77 78 78 76 76 75 74 77 80 80 78 74 70 66 66 66 67 72 71 69 67 65 67 68 68 67 66 63 62 61
64 77 77 74 66 57 70 48 57 61 58 66 72 78 78 77 78 79 76 75 74 76 77 77 76 74 74 75 75 73 71 69 67 66 65 67 69 68 69 69 69 67 67 69 68 66 65 64 61
71 79 74 74 66 60 64 53 53 62 64 68 72 77 76 77 77 76 76 72 73 74 73 72 75 74 74 72 71 70 69 69 67 68 69 68 68 69 70 70 69 69 68 67 65 65 64 63 61
82 74 70 67 60 51 58 55 53 55 65 72 74 76 77 76 76 77 76 75 72 73 73 71 69 70 71 72 70 67 67 68 68 67 66 66 66 66 66 66 66 65 66 65 65 64 63 61 61
72 61 50 49 46 50 64 59 55 65 70 74 72 71 75 75 74 73 73 72 72 71 71 71 68 67 68 68 69 69 68 66 65 65 65 64 63 62 62 63 62 62 62 61 61 60 60 60 60
68 61 51 43 44 48 64 50 56 63 74 76 75 72 73 71 71 72 71 71 69 70 69 69 67 68 68 69 68 69 69 66 65 64 63 62 60 61 62 61 61 61 61 61 61 60 60 60 57
68 59 65 56 56 51 51 58 63 68 70 74 72 72 69 69 69 69 70 70 69 67 68 68 67 66 67 67 68 69 70 69 65 64 64 64 63 62 61 61 61 61 62 59 57 56 57 58 58
70 71 56 54 44 43 50 51 51 60 63 67 67 67 68 69 69 69 69 68 69 68 67 67 67 66 66 66 66 68 67 67 67 67 62 64 63 63 62 62 61 59 58 59 58 58 58 58 57
64 60 59 56 54 44 42 48 60 60 63 64 65 66 67 68 69 69 69 68 68 69 67 65 65 66 65 66 66 66 65 65 65 64 63 64 64 63 60 60 60 60 59 59 58 58 60 58 57
71 63 60 48 49 51 49 48 66 65 66 66 64 67 67 67 69 69 69 68 67 66 67 65 65 65 65 65 66 65 65 65 64 63 63 65 62 62 61 60 60 61 61 60 60 62 63 62 60
MSLP
1008.97 1008.84 1009.35 1009.53 1010.36 1010.34 1009.22 1007.09 1005.77 1003.77 1002.67 1002.88 1002.91 1004.13 1004.70 1004.85 1004.91 1006.10 1005.64 1005.71 1006.96 1007.94 1008.68 1008.93 1009.17 1009.70 1010.07 1010.54 1011.01 1011.46 1011.88 1012.20 1012.47 1012.90 1013.21 1013.47 1013.65 1013.85 1014.17 1014.40 1014.62 1014.85 1014.95 1015.10 1015.21 1015.19 1015.31 1015.53 1015.63
1008.60 1008.52 1008.93 1009.07 1009.32 1009.59 1008.13 1005.85 1004.23 1003.17 1002.44 1002.60 1003.80 1004.14 1005.45 1006.23 1006.40 1006.34 1006.05 1006.82 1007.29 1008.20 1008.74 1008.97 1009.24 1009.70 1010.23 1010.66 1011.08 1011.55 1011.93 1012.32 1012.60 1012.99 1013.32 1013.56 1013.81 1014.03 1014.29 1014.50 1014.72 1014.89 1015.05 1015.20 1015.27 1015.36 1015.37 1015.51 1015.70
1008.53 1008.32 1009.06 1008.64 1008.01 1007.98 1006.30 1004.17 1003.07 1002.43 1002.43 1003.08 1004.73 1005.79 1006.53 1006.83 1005.68 1006.63 1005.87 1007.03 1007.74 1008.59 1008.99 1009.25 1009.46 1009.84 1010.31 1010.78 1011.16 1011.59 1011.96 1012.39 1012.72 1013.07 1013.40 1013.70 1013.97 1014.17 1014.38 1014.57 1014.75 1014.91 1015.05 1015.25 1015.36 1015.52 1015.49 1015.60 1015.80
1008.18 1008.14 1008.41 1007.80 1007.50 1005.87 1004.67 1003.12 1001.73 1002.12 1003.19 1003.17 1003.96 1006.39 1006.20 1005.03 1005.54 1005.86 1006.43 1006.86 1007.60 1008.67 1009.13 1009.45 1009.76 1010.06 1010.30 1010.74 1011.18 1011.65 1012.04 1012.48 1012.87 1013.21 1013.51 1013.76 1013.96 1014.14 1014.40 1014.61 1014.81 1015.06 1015.24 1015.39 1015.52 1015.58 1015.59 1015.73 1015.91
1007.98 1008.23 1008.13 1007.54 1006.49 1004.18 1003.36 1002.27 1001.49 1002.24 1003.11 1003.99 1004.33 1006.32 1006.21 1004.88 1004.79 1005.61 1006.40 1006.69 1007.22 1008.64 1009.25 1009.81 1010.03 1010.30 1010.53 1010.75 1011.09 1011.54 1011.97 1012.42 1012.82 1013.14 1013.46 1013.71 1013.90 1014.16 1014.37 1014.62 1014.82 1015.02 1015.19 1015.33 1015.43 1015.44 1015.58 1015.73 1015.89
1008.25 1007.72 1007.93 1007.42 1005.72 1003.93 1002.70 1001.20 1001.08 1001.88 1002.71 1004.15 1004.72 1005.79 1006.24 1005.32 1005.34 1004.80 1005.84 1006.56 1007.31 1008.27 1009.20 1009.71 1010.20 1010.41 1010.72 1011.00 1011.21 1011.54 1011.90 1012.32 1012.71 1013.02 1013.33 1013.60 1013.86 1014.06 1014.28 1014.50 1014.65 1014.83 1015.04 1015.13 1015.25 1015.23 1015.35 1015.51 1015.76
1007.88 1008.10 1007.74 1006.62 1005.52 1003.49 1001.88 1000.64 1000.73 1000.93 1001.39 1003.44 1003.27 1004.42 1004.78 1004.81 1004.56 1004.71 1005.14 1006.47 1007.49 1008.13 1009.09 1009.60 1010.13 1010.52 1010.71 1010.99 1011.30 1011.57 1011.89 1012.28 1012.59 1012.92 1013.23 1013.55 1013.77 1014.03 1014.26 1014.43 1014.65 1014.90 1015.08 1015.14 1015.16 1015.25 1015.35 1015.54 1015.73
1006.75 1007.64 1007.31 1005.79 1004.80 1003.28 1001.29 1000.37 1000.48 1000.46 1000.61 1001.46 1001.81 1002.95 1003.89 1003.84 1004.16 1004.53 1005.13 1006.29 1007.22 1008.01 1008.86 1009.53 1009.98 1010.51 1010.82 1011.05 1011.32 1011.55 1011.74 1012.11 1012.38 1012.74 1013.16 1013.48 1013.79 1014.13 1014.36 1014.53 1014.69 1014.83 1015.00 1015.05 1015.09 1015.14 1015.25 1015.40 1015.51
1006.00 1006.78 1006.78 1005.61 1004.67 1003.20 1001.63 1001.06 1000.25 1000.05 1000.25 1000.45 1001.46 1001.55 1001.91 1003.01 1003.80 1004.64 1005.20 1006.49 1007.43 1008.08 1008.47 1009.35 1009.89 1010.26 1010.73 1010.98 1011.26 1011.58 1011.82 1012.20 1012.53 1012.78 1013.14 1013.42 1013.67 1013.83 1014.00 1014.12 1014.19 1014.20 1014.29 1014.39 1014.52 1014.60 1014.71 1014.94 1015.08
1006.03 1006.43 1006.05 1005.12 1004.13 1003.05 1002.22 1001.68 1000.99 1000.90 1000.46 1001.12 1001.31 1001.55 1002.23 1002.84 1003.89 1005.51 1007.03 1008.77 1008.34 1008.14 1008.40 1008.59 1009.30 1009.78 1010.22 1010.37 1010.89 1011.32 1011.54 1011.87 1012.24 1012.54 1012.79 1013.09 1013.25 1013.29 1013.22 1013.23 1013.33 1013.38 1013.48 1013.46 1013.47 1013.50 1013.78 1014.17 1014.39
1005.23 1005.43 1004.65 1003.96 1003.33 1002.80 1002.29 1001.87 1001.31 1001.39 1001.15 1000.90 1000.97 1001.42 1001.86 1002.43 1004.81 1005.30 1005.90 1006.07 1007.30 1007.86 1007.60 1007.93 1008.49 1008.85 1009.34 1009.62 1010.31 1010.84 1011.08 1011.36 1011.59 1011.91 1012.30 1012.65 1012.70 1012.84 1012.78 1012.78 1012.71 1012.76 1012.54 1012.55 1012.67 1012.87 1012.98 1013.00 1013.34
1004.61 1004.39 1003.99 1003.36 1002.76 1002.65 1002.56 1002.08 1001.68 1001.46 1001.11 1000.51 1000.21 1000.69 1001.41 1002.25 1004.04 1004.64 1005.05 1004.06 1005.24 1006.86 1006.44 1006.86 1007.55 1008.02 1008.18 1008.47 1009.28 1009.71 1010.25 1010.58 1011.10 1011.32 1011.38 1011.66 1011.72 1011.65 1011.47 1011.36 1011.14 1011.37 1011.52 1011.71 1011.73 1012.05 1012.30 1012.62 1012.99
1004.11 1004.09 1003.61 1003.07 1002.73 1002.48 1002.20 1002.16 1001.92 1001.46 1000.83 1000.34 1000.00 1000.00 1000.63 1001.63 1002.94 1004.14 1003.38 1003.54 1004.34 1005.45 1005.38 1005.87 1006.68 1007.35 1007.43 1007.91 1008.53 1009.09 1009.51 1009.99 1009.90 1010.15 1010.24 1010.49 1010.67 1010.62 1010.45 1010.49 1010.48 1010.63 1010.91 1011.20 1011.73 1011.91 1011.98 1012.08 1011.92
1003.99 1003.78 1003.51 1003.15 1002.65 1002.08 1002.13 1002.05 1001.86 1001.11 1000.79 1000.26 1000.06 1000.12 1000.51 1001.06 1001.89 1004.23 1004.52 1004.38 1004.65 1004.39 1004.29 1005.03 1005.83 1006.22 1006.65 1007.26 1007.94 1008.46 1008.89 1008.86 1009.05 1009.37 1009.57 1009.79 1009.89 1010.30 1010.58 1010.62 1010.59 1010.93 1010.55 1010.48 1010.68 1011.12 1011.41 1011.66 1011.77
1004.20 1004.16 1003.70 1003.14 1002.40 1002.16 1001.79 1002.06 1001.85 1001.05 1000.41 1000.58 1000.84 1000.88 1000.90 1001.22 1001.45 1002.33 1002.27 1003.13 1003.37 1003.64 1003.81 1004.31 1004.95 1005.66 1005.96 1006.45 1006.93 1007.50 1008.07 1008.19 1008.40 1008.66 1008.94 1009.16 1009.51 1009.82 1010.02 1009.92 1010.01 1009.97 1010.12 1010.35 1010.50 1010.47 1010.63 1011.13 1011.60
1004.77 1004.36 1004.13 1002.91 1002.05 1001.92 1002.14 1002.52 1001.45 1000.98 1000.93 1001.69 1002.28 1003.26 1003.20 1004.10 1003.78 1003.16 1002.97 1003.65 1003.54 1003.30 1003.69 1003.96 1004.28 1005.10 1005.44 1005.81 1006.33 1006.82 1007.31 1007.62 1008.04 1008.05 1008.35 1008.42 1008.65 1008.95 1009.55 1009.73 1009.65 1009.70 1009.87 1010.29 1010.63 1010.74 1011.02 1011.19 1011.45
1004.80 1004.30 1003.57 1003.10 1002.28 1002.40 1002.89 1004.09 1004.19 1002.52 1002.96 1003.76 1005.22 1005.56 1005.66 1006.01 1005.65 1004.70 1004.25 1004.14 1003.69 1003.93 1003.30 1003.79 1004.18 1004.82 1005.34 1005.70 1006.13 1006.56 1007.02 1007.42 1007.64 1007.37 1007.62 1008.03 1008.35 1008.73 1009.39 1010.02 1009.83 1009.64 1010.01 1010.03 1010.29 1010.19 1010.35 1011.08 1011.30
1004.85 1004.15 1003.19 1003.20 1003.18 1003.34 1005.05 1006.20 1005.96 1004.70 1005.02 1006.45 1006.58 1006.78 1006.92 1007.11 1007.53 1006.87 1005.52 1004.62 1004.35 1004.02 1003.76 1003.55 1003.94 1004.50 1005.08 1005.67 1006.17 1006.52 1006.89 1007.25 1007.31 1007.69 1008.37 1009.19 1010.13 1010.68 1010.85 1010.89 1010.38 1009.92 1009.91 1009.95 1009.98 1010.23 1010.35 1010.33 1010.82
1004.20 1003.91 1003.85 1003.30 1003.30 1004.39 1006.59 1007.79 1008.08 1007.24 1006.08 1008.27 1008.51 1008.15 1007.44 1007.58 1008.92 1006.85 1006.21 1005.95 1005.42 1004.98 1004.56 1004.95 1004.50 1005.02 1005.41 1006.19 1006.53 1006.95 1007.16 1007.24 1007.60 1008.06 1008.34 1008.97 1009.69 1009.66 1010.49 1010.33 1010.18 1009.70 1009.74 1009.43 1009.70 1009.89 1010.27 1010.83 1011.03
1003.83 1003.86 1004.06 1003.80 1004.06 1005.67 1007.18 1008.90 1009.96 1009.89 1011.02 1011.55 1011.06 1008.48 1009.00 1009.55 1008.55 1008.30 1008.39 1007.28 1006.86 1006.62 1006.44 1006.47 1006.13 1005.57 1005.82 1006.00 1006.29 1006.36 1006.51 1007.65 1007.83 1008.25 1007.75 1006.94 1008.01 1008.50 1008.01 1008.83 1009.14 1009.52 1009.55 1009.30 1009.30 1009.66 1010.37 1010.87 1010.92
1003.93 1004.01 1004.32 1004.74 1004.75 1006.40 1007.24 1009.48 1010.95 1011.58 1012.41 1012.38 1008.82 1008.48 1008.47 1008.68 1008.91 1008.73 1008.83 1008.73 1007.76 1007.55 1007.84 1007.44 1007.33 1006.90 1006.94 1006.12 1006.03 1006.23 1006.42 1007.58 1008.03 1007.74 1007.36 1007.30 1008.04 1008.10 1007.55 1008.16 1008.58 1009.00 1009.19 1008.92 1008.85 1009.43 1009.93 1010.36 1010.48
1004.08 1004.12 1004.58 1005.08 1005.86 1006.63 1007.11 1009.72 1011.42 1012.02 1012.02 1011.17 1009.38 1009.06 1008.72 1008.87 1009.11 1009.35 1009.53 1009.21 1009.27 1009.53 1009.09 1008.50 1008.07 1007.88 1007.37 1007.01 1006.94 1007.28 1006.92 1006.99 1007.54 1007.79 1007.72 1008.30 1008.39 1008.06 1007.33 1007.73 1007.92 1008.27 1008.73 1008.59 1008.30 1008.80 1009.30 1009.74 1010.24
1004.20 1004.17 1004.87 1005.45 1006.25 1007.44 1008.78 1010.12 1011.79 1011.90 1011.60 1010.00 1008.97 1008.98 1009.20 1009.38 1009.71 1009.94 1010.27 1010.80 1010.74 1010.30 1010.11 1009.86 1009.39 1008.84 1008.53 1008.38 1008.25 1008.34 1008.05 1007.81 1008.07 1008.10 1008.63 1007.76 1007.49 1007.44 1007.61 1007.55 1007.81 1008.03 1008.15 1007.97 1008.09 1008.68 1009.08 1009.55 1009.83
1003.86 1004.56 1005.10 1005.78 1007.39 1008.97 1009.33 1011.17 1012.38 1012.00 1011.09 1009.62 1008.81 1008.87 1009.42 1009.67 1010.20 1010.47 1010.82 1010.98 1011.16 1010.95 1010.63 1010.61 1010.46 1010.19 1009.79 1009.13 1009.36 1009.08 1008.96 1008.87 1007.99 1008.13 1008.61 1009.26 1008.41 1008.05 1008.03 1007.92 1007.94 1008.04 1007.84 1007.85 1008.19 1008.57 1009.04 1009.33 1009.47
1004.50 1005.47 1006.76 1008.41 1009.80 1010.65 1010.66 1011.69 1013.49 1012.48 1011.27 1009.71 1009.77 1010.23 1010.29 1010.34 1010.68 1011.03 1011.37 1011.52 1011.69 1011.78 1011.70 1011.52 1011.50 1011.22 1010.91 1010.43 1010.09 1009.64 1009.14 1009.29 1009.37 1009.56 1010.08 1009.09 1008.41 1008.35 1008.35 1008.17 1008.07 1008.07 1008.11 1008.24 1008.54 1009.14 1009.43 1009.19 1009.51
1005.25 1006.39 1007.99 1009.50 1010.85 1011.13 1011.10 1012.17 1012.99 1012.38 1010.75 1010.33 1010.26 1010.81 1011.12 1011.16 1011.51 1011.91 1012.10 1012.25 1012.47 1012.53 1012.30 1012.01 1011.77 1011.65 1011.42 1011.07 1010.69 1009.98 1009.41 1009.28 1009.16 1009.21 1009.41 1009.87 1009.84 1009.40 1008.68 1008.49 1008.45 1008.60 1008.61 1008.96 1009.15 1009.58 1009.51 1009.60 1009.66
1005.50 1006.51 1007.33 1008.97 1009.87 1011.10 1012.07 1012.68 1013.39 1012.77 1011.83 1011.54 1011.37 1011.45 1011.92 1012.05 1012.19 1012.43 1012.46 1012.67 1012.91 1013.06 1012.91 1012.78 1012.55 1012.21 1011.77 1011.39 1010.96 1010.55 1009.96 1009.48 1009.37 1009.08 1008.98 1009.29 1009.55 1009.63 1009.57 1009.45 1009.22 1009.24 1009.39 1009.62 1009.90 1010.08 1009.98 1009.72 1009.64
1006.00 1006.82 1008.21 1009.84 1011.62 1012.42 1013.05 1012.87 1012.80 1012.69 1012.99 1012.66 1012.27 1012.27 1012.42 1012.48 1012.58 1012.85 1012.91 1012.98 1013.08 1012.99 1013.15 1013.11 1013.03 1012.81 1012.40 1011.89 1011.39 1010.94 1010.50 1010.10 1009.66 1009.29 1009.24 1009.45 1009.72 1009.69 1009.67 1009.70 1009.70 1009.79 1009.88 1009.83 1009.91 1009.74 1009.39 1009.42 1009.28
1006.82 1007.96 1009.35 1010.71 1012.20 1013.29 1013.65 1013.53 1012.57 1013.01 1012.75 1012.72 1012.81 1012.96 1012.75 1012.83 1012.82 1013.07 1013.16 1013.21 1013.22 1013.08 1013.06 1013.22 1013.11 1012.85 1012.56 1012.26 1011.70 1011.15 1010.70 1010.27 1009.93 1009.63 1009.45 1009.22 1009.50 1009.62 1009.62 1009.83 1009.81 1009.76 1009.59 1009.44 1009.41 1009.11 1008.82 1008.84 1008.99
1007.50 1008.60 1009.77 1011.66 1012.90 1013.27 1013.42 1013.51 1012.99 1012.89 1013.09 1013.21 1013.26 1013.09 1013.07 1012.91 1012.91 1013.12 1013.45 1013.46 1013.67 1013.87 1013.62 1013.48 1013.25 1013.00 1012.68 1012.22 1011.85 1011.47 1010.80 1010.28 1009.90 1009.72 1009.48 1009.04 1009.11 1009.17 1009.10 1009.18 1009.36 1009.57 1009.62 1009.61 1009.51 1009.41 1009.33 1009.25 1009.67
Wind_Speed
4 6 3 1 4 5 6 8 5 11 1 6 22 16 4 10 5 3 3 17 21 18 14 15 20 18 18 17 17 16 15 14 13 12 12 11 11 11 10 9 9 9 9 8 7 8 7 6 5
2 4 2 3 4 2 7 7 10 8 4 14 16 13 10 7 16 7 8 16 18 16 11 13 19 18 17 17 17 16 15 14 14 12 11 11 10 10 9 8 7 8 8 8 7 7 6 6 3
2 6 2 4 4 8 7 13 18 15 15 14 8 9 3 4 13 5 16 20 17 13 11 13 17 17 17 16 16 16 15 14 14 13 11 10 10 9 8 7 7 8 8 8 7 6 6 6 4
2 3 4 2 8 14 12 12 5 11 19 14 14 5 5 13 5 7 20 21 18 14 11 14 16 16 17 17 16 16 15 14 13 12 11 10 10 9 8 7 6 6 6 7 7 6 6 5 4
1 3 2 4 7 12 5 11 7 9 11 10 9 6 5 11 6 11 20 19 21 15 14 11 15 15 16 17 17 16 15 14 13 12 12 11 10 9 8 7 7 7 7 7 8 7 6 5 6
3 2 4 4 5 11 9 3 3 13 14 11 8 12 7 8 3 6 17 18 19 18 15 14 16 15 15 15 16 15 15 14 13 12 11 10 10 10 9 9 9 9 8 9 9 8 8 8 8
6 1 6 9 7 5 6 2 2 5 3 9 19 15 4 5 8 8 8 19 18 17 14 12 12 14 16 15 15 14 14 13 13 12 11 11 11 10 10 10 9 8 8 9 9 9 9 8 8
3 4 10 8 6 8 10 5 4 7 6 17 12 6 7 8 11 8 18 19 17 16 14 13 12 10 9 9 16 15 15 14 14 13 12 11 10 10 10 9 9 9 10 10 10 10 10 10 10
3 4 7 10 9 7 8 7 7 6 5 8 7 7 11 11 16 10 8 15 14 14 15 13 12 11 9 8 10 13 15 13 12 12 12 9 4 6 8 10 13 14 14 14 14 13 13 12 12
4 3 9 8 6 7 9 9 7 7 10 6 8 9 14 18 16 10 15 7 7 15 16 16 15 14 11 10 10 8 8 7 6 6 7 5 6 6 11 14 18 18 18 18 19 19 17 14 5
7 7 10 8 6 8 6 9 7 6 9 6 3 15 15 11 20 17 19 16 15 14 15 17 17 16 16 12 8 6 6 6 7 9 7 7 6 7 6 6 8 9 18 10 13 12 10 11 8
2 9 8 5 7 7 8 8 8 5 9 9 9 6 12 11 21 21 24 16 18 17 20 20 19 17 17 11 10 10 9 8 7 10 13 10 7 9 10 8 11 11 9 11 11 7 10 9 6
4 9 7 9 9 6 6 9 5 9 11 8 7 6 3 10 18 22 26 19 17 17 20 21 19 17 15 10 10 10 10 9 11 10 12 11 10 10 9 7 7 8 7 8 7 8 6 7 9
7 7 8 10 11 5 5 8 2 13 7 8 5 4 2 5 10 21 16 16 17 16 15 20 19 18 13 11 12 10 10 12 10 10 11 15 11 8 4 4 4 5 7 8 8 7 6 8 9
8 7 9 10 9 5 2 7 9 9 2 6 8 7 2 6 11 10 8 14 16 14 14 11 17 15 11 12 11 7 7 9 10 9 14 15 12 9 9 5 5 6 3 4 4 5 5 5 3
9 5 5 10 6 5 5 10 7 4 5 6 12 22 27 27 22 17 10 10 2 11 10 9 12 12 9 8 6 4 4 3 4 6 7 14 14 11 6 5 5 3 3 5 6 4 3 4 4
5 10 10 4 5 3 7 7 18 16 16 16 26 28 26 29 27 21 16 10 10 7 11 9 10 13 9 7 5 6 6 4 4 4 3 8 10 8 1 2 4 3 3 4 6 4 4 4 3
8 6 6 8 3 8 17 11 16 13 24 16 18 21 20 21 18 19 16 15 11 8 4 9 8 12 9 5 4 2 3 3 4 1 6 11 8 10 10 6 7 5 3 4 4 4 3 3 3
7 6 6 6 5 13 10 11 19 22 29 20 8 14 10 9 11 5 14 11 17 20 9 4 4 7 8 2 3 2 4 4 2 6 9 10 7 11 7 9 6 5 6 8 5 2 3 2 2
8 6 7 6 6 13 5 8 11 18 6 17 20 12 10 5 3 4 7 14 14 15 16 17 10 2 5 3 2 3 4 4 3 1 6 11 18 18 14 6 6 5 4 5 5 4 1 2 4
8 5 5 4 8 8 6 4 3 13 13 23 2 14 15 13 10 6 11 14 16 18 13 11 10 13 9 3 3 2 3 5 2 4 4 5 13 8 7 5 4 6 4 5 6 5 6 7 4
4 6 7 8 4 6 6 3 7 6 9 20 8 13 15 15 17 19 19 18 21 18 18 16 11 9 7 10 5 7 4 4 0 2 3 4 2 7 6 5 6 7 6 10 7 4 8 5 4
6 7 5 9 8 7 6 7 6 6 2 4 8 16 16 16 16 16 18 15 16 17 14 17 17 16 16 15 15 10 12 10 5 5 11 6 9 6 6 6 7 9 6 3 2 1 4 5 3
9 5 8 4 3 4 6 7 6 4 5 10 12 13 14 16 16 16 15 16 17 15 15 15 17 16 16 15 11 7 7 9 10 5 5 5 3 3 7 7 5 4 1 1 1 2 2 3 3
8 7 6 8 8 4 5 6 8 12 13 13 14 10 12 13 14 14 13 14 14 15 14 12 10 12 11 11 11 8 7 6 3 3 1 7 7 5 7 9 8 6 5 6 7 5 3 4 3
6 7 5 2 3 6 5 4 3 10 9 10 11 9 9 10 10 11 10 9 9 9 9 10 10 11 10 11 11 8 8 5 5 5 5 4 4 5 8 7 6 6 5 4 4 3 2 3 4
7 7 3 3 5 5 3 4 4 7 22 10 9 10 8 9 8 8 9 8 8 8 9 9 9 10 10 10 9 11 10 6 5 6 6 5 4 3 4 3 3 4 4 5 4 2 3 3 3
5 2 9 6 5 6 4 3 4 4 6 7 8 9 9 7 8 8 7 8 7 7 6 8 8 7 8 9 7 7 8 5 4 3 4 4 3 3 1 2 3 4 4 5 4 3 4 4 4
7 6 6 4 6 2 4 2 3 7 7 8 8 7 7 7 7 7 7 6 7 6 6 5 6 7 7 8 8 8 7 7 5 3 1 4 1 3 3 4 5 6 6 5 4 4 3 5 4
7 6 7 6 4 1 3 4 7 9 8 7 6 7 6 6 6 7 8 7 7 8 8 6 6 7 6 6 8 8 8 7 6 5 6 6 6 6 7 7 6 0 4 6 8 9 9 9 10
Wind_Direction
171 212 182 344 72 69 261 231 261 281 35 64 73 86 61 51 53 161 125 119 125 130 140 135 132 133 134 135 133 131 131 130 127 126 125 123 119 114 110 107 112 119 123 126 125 117 111 99 89
359 302 169 270 127 175 262 282 281 229 44 104 48 73 34 7 13 69 96 122 120 127 132 132 134 135 134 135 133 134 136 135 132 135 136 133 130 129 126 127 132 137 142 145 139 138 136 134 138
239 192 98 181 239 207 241 245 248 279 88 76 98 54 15 298 321 277 119 119 121 123 127 133 132 136 136 137 136 140 140 139 139 143 144 142 141 138 140 147 153 158 161 161 155 160 155 165 178
321 359 297 150 252 259 253 279 327 98 87 97 118 65 241 198 198 176 129 130 129 124 120 130 132 136 137 140 142 144 144 145 147 152 153 153 154 151 157 162 166 175 179 176 176 174 172 183 196
120 293 269 310 236 273 286 252 43 88 93 116 126 181 255 321 210 141 141 138 134 128 132 133 138 143 146 150 150 149 150 152 155 158 162 166 166 167 171 175 178 190 193 193 193 185 192 202 218
306 134 329 266 282 253 291 330 56 112 119 131 96 136 214 243 157 201 156 143 135 137 143 144 148 151 153 157 156 156 157 159 160 163 170 176 179 181 182 187 193 199 207 206 207 199 205 213 227
204 47 262 280 255 23 305 360 14 63 17 151 161 152 217 156 208 233 141 132 135 135 140 146 152 161 162 162 162 162 160 162 165 171 178 185 188 190 193 200 205 209 218 222 222 218 219 228 237
196 97 291 271 277 220 253 139 77 59 302 147 165 154 181 198 198 165 117 134 140 140 148 151 153 160 162 166 169 168 166 172 175 178 184 189 194 200 207 209 216 217 227 230 233 234 234 234 237
256 15 275 274 324 312 13 29 11 356 345 37 174 151 154 167 160 141 137 143 140 144 151 157 159 161 167 165 178 176 177 180 182 184 189 191 182 199 210 210 215 216 218 221 225 227 232 234 238
138 161 254 257 329 340 353 17 357 14 335 37 95 130 157 160 140 93 73 33 157 158 164 166 167 167 175 177 172 173 179 179 175 182 187 185 197 205 209 212 215 216 216 217 219 219 221 228 211
224 218 266 290 335 351 343 350 315 24 339 305 134 157 161 165 106 124 106 124 263 207 170 175 172 173 177 186 170 180 186 182 185 187 183 191 209 224 225 218 216 214 217 217 218 222 220 210 207
121 293 273 283 328 348 328 312 322 350 267 273 290 164 168 173 136 140 142 187 203 213 175 178 179 176 185 184 174 178 181 182 185 198 193 191 202 211 217 210 209 204 206 210 211 212 224 218 203
184 258 310 332 313 241 256 284 263 290 283 304 324 355 191 186 147 155 171 198 190 212 169 178 178 179 190 165 177 177 188 185 198 197 200 199 205 216 222 225 203 198 202 208 220 225 218 206 187
271 301 304 290 282 273 224 259 182 264 253 337 352 288 273 4 181 160 189 185 197 188 169 172 176 181 169 162 175 182 187 198 192 197 200 204 209 218 234 249 227 201 211 210 204 197 198 198 177
302 313 297 276 248 244 74 314 272 260 46 4 3 5 56 49 111 133 168 161 167 172 171 163 167 177 172 166 173 165 179 198 201 198 199 203 206 216 217 210 224 231 265 179 122 163 170 162 185
301 291 284 268 199 213 117 291 220 151 74 16 20 32 40 38 32 14 39 46 54 151 166 161 159 167 164 166 168 160 184 203 202 185 185 201 202 206 207 214 230 232 157 139 170 173 181 195 179
301 255 230 233 112 47 54 347 3 26 62 56 60 50 39 17 20 13 21 0 35 275 162 165 146 167 163 165 163 168 179 201 224 231 213 191 203 211 151 303 281 269 195 177 184 193 159 188 209
318 350 9 121 134 66 54 24 1 27 44 12 67 60 45 21 344 345 354 357 360 2 239 163 147 165 165 146 146 147 171 217 232 160 65 51 41 26 355 326 311 292 193 200 196 200 197 175 201
307 311 359 327 98 73 101 60 43 19 28 12 39 86 84 183 267 319 343 358 30 21 18 350 125 137 144 139 143 138 199 205 104 100 97 79 36 9 304 267 269 259 217 211 207 171 205 306 356
296 315 11 337 20 88 109 51 87 64 35 293 290 109 121 198 155 261 343 18 33 35 27 25 8 139 143 139 174 183 200 74 124 198 130 127 183 227 222 218 266 274 245 222 198 167 142 279 211
328 49 28 294 314 97 111 360 13 87 22 313 85 94 97 81 44 28 63 32 35 37 31 27 25 15 358 320 168 202 71 86 7 280 202 163 206 222 232 241 240 249 243 252 224 208 211 248 230
5 25 347 322 337 268 161 252 39 104 209 266 55 87 75 66 52 44 43 35 33 30 15 12 22 19 8 4 349 351 303 285 31 296 265 275 332 241 265 291 276 256 259 257 235 218 235 233 238
267 325 298 279 286 48 19 60 297 238 257 283 51 75 77 68 58 51 51 43 37 30 31 25 28 36 36 39 31 23 9 4 2 16 11 326 285 273 308 266 256 244 235 231 251 231 186 209 175
262 299 291 294 28 68 239 115 307 289 255 75 55 49 73 68 60 51 49 48 35 32 31 30 28 25 23 23 30 20 357 14 54 330 57 282 10 48 24 7 14 4 65 54 251 238 185 139 128
22 34 346 14 27 297 19 62 17 22 283 78 72 45 61 72 65 56 48 49 43 35 28 26 22 19 7 6 4 343 359 31 2 6 315 22 9 11 6 8 11 26 57 71 89 98 165 131 133
338 112 127 338 166 238 36 129 155 165 246 78 76 78 67 68 77 68 61 55 56 38 28 26 19 16 11 7 356 340 355 360 25 20 35 24 17 358 359 3 21 30 59 79 84 119 113 101 112
322 19 263 145 302 54 142 65 87 288 16 31 68 60 57 66 80 87 73 59 55 49 32 25 19 5 358 355 352 358 341 14 23 29 43 40 39 14 356 348 22 50 78 90 101 145 162 160 194
55 328 28 2 19 342 51 28 172 157 180 15 34 55 45 58 69 77 75 74 55 55 40 28 16 9 349 346 342 352 346 8 349 24 78 59 9 354 101 83 126 139 164 163 174 195 199 210 240
0 27 33 86 79 35 360 332 150 108 70 47 41 44 53 42 70 76 74 72 69 53 51 36 17 4 349 343 331 334 332 332 321 315 335 125 178 211 188 213 200 193 188 197 222 257 235 199 231
10 94 98 110 318 179 179 285 103 108 90 61 38 33 15 83 59 72 54 51 50 33 17 9 3 359 341 341 337 316 311 309 309 293 237 190 202 212 210 206 225 168 8 26 38 42 44 59 72